Regional Weather Roundup
Issued by NWS

Home | Current Version | Previous Version | Text Only | Print | Product List | Glossary Off
Versions: 1 2 3 4 5 6 7 8 9 10 11 12 13 14 15 16 17 18 19 20 21 22 23 24 25 26 27 28 29 30 31 32 33 34 35 36 37 38 39 40 41 42 43 44 45 46 47 48 49 50

733
ASUS43 KDTX 202101
RWRMI
MICHIGAN HOURLY REGIONAL WEATHER ROUNDUP
NATIONAL WEATHER SERVICE DETROIT/PONTIAC MI
500 PM EDT THU JUL 20 2017

NOTE: "FAIR" INDICATES FEW OR NO CLOUDS BELOW 12,000 FEET WITH NO
SIGNIFICANT WEATHER AND/OR OBSTRUCTION TO VISIBILITY.

MIZ047>049-052>055-059>063-066>070-074>076-081>083-202200-
SOUTHEAST LOWER MICHIGAN

CITY           SKY/WX    TMP DP  RH WIND       PRES   REMARKS
ADRIAN         CLOUDY    84  69  60 W7        29.98F
ALMA           CLOUDY    84  68  57 W9        29.94F
ANN ARBOR      PTSUNNY   85  70  60 SW8       29.96F
BAD AXE        PTSUNNY   83  68  60 W6        29.93F
CARO           PTSUNNY   83  68  60 SW8       29.93S
DETROIT CITY   PTSUNNY   86  66  51 W10       29.95F
DETROIT        CLOUDY    86  70  58 W8        29.97F HX  90
FLINT          MOSUNNY   82  68  62 S8        29.96F
GROSSE ILE     SUNNY     87  69  54 W7        29.96F HX  90
HILLSDALE      CLOUDY    82  70  65 SW5       29.98F
HOWELL         CLOUDY    83  68  61 SW5       29.97F

CITY           SKY/WX    TMP DP  RH WIND       PRES   REMARKS
JACKSON        MOSUNNY   84  69  60 SW8       29.97F
LAMBERTVILLE   MOSUNNY   85  70  60 W5        29.96F HX  90
LANSING        MOSUNNY   83  68  60 W7        29.96F
LAPEER         FAIR      84  66  54 SW9G16    29.96F
MASON          CLOUDY    84  71  63 SW3       29.97F
MONROE         CLOUDY    85  71  62 CALM      29.95F HX  90
MT. CLEMENS    MOSUNNY   86  68  55 W9        29.95S
PONTIAC        MOSUNNY   82  67  60 W6        29.96F
PORT HOPE        N/A     75  68  78 E12       29.91F
PORT HURON     MOSUNNY   86  68  54 W7        29.94F
TRI CITIES     MOSUNNY   86  70  58 W13       29.93S HX  90
MIDLAND        PTSUNNY   86  68  54 SW6       29.91F
TROY           CLOUDY    84  65  52 SW5       29.98F
SAGINAW HB     MOSUNNY   84  68  58 SW13      29.92F
$$
MIZ043>046-050>051-056>058-064>065-071>073-077>080-202200-
SOUTHWEST LOWER MICHIGAN

CITY           SKY/WX    TMP DP  RH WIND       PRES   REMARKS
BATTLE CREEK   MOSUNNY   84  71  65 W8        29.97F
BENTON HARBOR  SUNNY     82  69  64 NW6       29.98S
BIG RAPIDS     PTSUNNY   85  63  47 N5        29.94S
COLDWATER      PTSUNNY   83  71  69 W5        29.98S
FREMONT        PTSUNNY   86  65  48 NW9       29.95S
HOLLAND        SUNNY     81  69  67 W8        29.97F
GRAND RAPIDS   PTSUNNY   83  70  64 W7        29.95F
IONIA          PTSUNNY   84  68  58 W6        29.95F
KALAMAZOO      MOSUNNY   86  68  54 W12       29.96F
LUDINGTON      MOSUNNY   76  68  75 W9        29.95S
MARSHALL       PTSUNNY   86  72  62 W9        29.96F HX  92
MOUNT PLEASANT PTSUNNY   86  64  47 W3        29.93S
MUSKEGON       PTSUNNY   78  67  68 SW9       29.96F
SOUTH HAVEN    SUNNY     80  71  73 W7        29.98S
$$
MIZ016>042-202200-
NORTHERN LOWER MICHIGAN

CITY           SKY/WX    TMP DP  RH WIND       PRES   REMARKS
ALPENA         SUNNY     79  68  69 SE9       29.91R
BEAVER ISLAND  SUNNY     78  64  61 SW9       29.93S
BELLAIRE       SUNNY     80  63  54 NW6       29.93F
CADILLAC       SUNNY     84  63  47 NW8G17    29.95F
CHARLEVOIX     SUNNY     77  64  63 W12       29.96F
FRANKFORT      SUNNY     78  69  73 CALM      29.95R
GAYLORD        SUNNY     81  60  48 NW10G20   29.94F
GRAYLING       SUNNY     82  62  49 NW13G20   29.95S
HARBOR SPRINGS SUNNY     76  64  68 W6        29.93F
HOUGHTON LAKE  SUNNY     86  65  49 NW8       29.94F
MANISTEE       SUNNY     82  70  66 VRB6      29.94S
OSCODA         PTSUNNY   77  65  66 SE10      29.91R
PELLSTON       SUNNY     80  61  52 W9        29.93S
ROGERS CITY    SUNNY     75  63  66 E5        29.91F
TRAVERSE CITY  PTSUNNY   84  64  50 N9        29.92S
$$
MIZ007>008-015-202200-
EASTERN UPPER MICHIGAN

CITY           SKY/WX    TMP DP  RH WIND       PRES   REMARKS
KINROSS        SUNNY     77  58  51 N14       29.91R
MACKINAC ISLAN SUNNY     73  64  72 SW12G21   29.91F
NEWBERRY       MOSUNNY   80  62  54 NW7       29.91F
S. S. MARIE    SUNNY     78  58  49 NW14      29.91R
MUNISING         N/A     75  66  73 NE9       29.93R
$$
MIZ004>006-011>014-085-202200-
CENTRAL UPPER MICHIGAN

CITY           SKY/WX    TMP DP  RH WIND       PRES   REMARKS
MANISTIQUE     MOSUNNY   79  66  64 SW5       29.92R
ESCANABA       MOSUNNY   86  63  45 NW8       29.90S
MENOMINEE      SUNNY     84  65  52 NW8       29.93S
$$
MIZ001>003-009>011-084-202200-
WESTERN UPPER MICHIGAN

CITY           SKY/WX    TMP DP  RH WIND       PRES   REMARKS
IRON MOUNTAIN  MOSUNNY   87  59  38 NW8       29.93S
HOUGHTON       SUNNY     78  62  57 W18       29.94F
COPPER HARBOR    N/A     67  58  72 N15       29.92S
IRONWOOD       SUNNY     80  60  50 W9        30.00S
$$

ABBREVIATIONS USED IN REMARKS
   TC - TEMPERATURE IN CELSIUS
  WCI - WIND CHILL INDEX
   HX - HEAT INDEX
  VSB - VISIBILITY





USA.gov is the U.S. government's official web portal to all federal, state and local government web resources and services.